User: anonymous   Login
Location: Niedergestelen
(46.3129°N, 7.7822°E)
Time: 08:26:57
(UTC+00:00)
Language:

COSMOS 2251 DEB - Orbit

View from above orbital plane
View from above orbital plane
View from above satellite
View from above satellite

Ground track
Ground track

The orbit data is extracted from the following two-line orbital elements,

1 34962U 93036AER 21170.47561855  .00000219  00000-0  78164-4 0  9999
2 34962  74.0334 350.4503 0020183 143.4889 238.9914 14.39784323641076
Epoch (UTC): 19 June 2021 11:24:53
Eccentricity: 0.0020183
inclination: 74.0334°
perigee height: 745 km
apogee height: 773 km
right ascension of ascending node: 350.4503°
argument of perigee: 143.4889°
revolutions per day: 14.39784323
mean anomaly at epoch: 238.9914°
orbit number at epoch: 64107

The dashed part of the orbit path shows where the satellite is in the earth's shadow,  

DLR